[[{"header":{"parameterUnit":"m.s-1","parameterCategory":1,"la1":30.2991,"la2":30.254,"lo1":-89.0895,"lo2":-89.0444,"dy":0.0017,"dx":0.0017,"nx":28,"ny":28,"refTime":"2024-07-14T21:00:00:Z","depth":0,"parameterNumber":2,"parameterNumberName":"U-component_of_WINDS"},"data":[0,0,0,0,0,0,0,0,0,0,0,0,0,0,0,0,0,0,0,0,0,0,0,0,0,0,0,0,0,0,0,0,0,0,0,0,0,0,0,0,0,0,0,0,0,0,0,0,0,0,0,0,0,0,0,0,0,0,3.6863,3.6863,0,3.6851,3.6851,3.6851,3.6757,3.6755,3.6752,3.675,3.6739,3.6741,3.6743,0,0,0,0,0,0,0,0,0,0,0,0,0,3.6805,3.6807,3.6863,3.6863,3.6863,3.6851,3.6851,3.6851,3.6757,3.6755,3.6752,3.6749,3.6738,3.6741,3.6743,0,0,0,0,0,0,0,0,0,0,0,0,0,3.6816,3.6807,3.6863,3.6815,3.681,3.6851,3.6851,3.6851,3.6758,3.6755,3.6751,3.6748,3.6738,3.674,3.6743,3.683,0,0,3.6752,3.6753,0,0,0,0,0,0,0,0,3.6815,3.6818,3.6822,3.6818,3.6813,3.6802,3.6826,3.6844,3.6759,3.6778,3.675,3.6746,3.6763,3.6763,3.6769,3.6829,3.6829,3.6752,3.6753,3.6755,3.6755,0,0,0,0,0,0,0,3.6814,3.6818,3.6858,3.6822,3.6817,3.6794,3.6791,3.6829,3.679,3.6776,3.6769,3.6769,3.676,3.6766,3.6768,3.6828,3.6752,3.6754,3.6756,3.6757,3.6955,3.6958,0,0,0,0,0,0,3.682,3.6818,3.6859,3.6858,3.6806,3.6797,3.6795,3.6809,3.6789,3.6783,3.6772,3.6765,3.6763,3.6765,3.6767,3.6864,3.6755,3.6757,3.6759,3.6952,3.6956,3.696,0,0,0,0,0,0,3.682,3.6825,3.6859,3.6836,3.6839,3.6802,3.6819,3.6811,3.6817,3.6786,3.6779,3.6786,3.676,3.6763,3.6814,3.6862,3.6759,3.6761,3.6947,3.6953,3.6958,3.706,0,0,0,0,0,0,3.6818,3.6825,3.6858,3.6837,3.684,3.6907,3.6822,3.6813,3.6822,3.6812,3.6797,3.6791,3.6758,3.681,3.6816,3.6864,3.6763,3.6943,3.695,3.6956,3.7052,3.7069,3.7082,0,0,0,0,0,3.6817,3.6889,3.686,3.6866,3.6881,3.691,3.6911,3.6871,3.6826,3.6858,3.6838,3.6792,3.6856,3.6816,3.6822,3.6872,3.6939,3.6948,3.6956,3.7046,3.7065,3.7082,0,0,0,0,0,0,3.6917,3.6885,3.6853,3.6921,3.6919,3.6894,3.6934,3.6894,3.6905,3.6895,3.6845,3.6843,3.69,3.6891,3.6847,3.6952,3.689,3.6899,3.6956,3.6974,3.6989,3.6989,3.6766,0,0,0,0,0,3.6947,3.6974,3.6944,3.7007,3.7007,3.6971,3.6982,3.6951,3.6947,3.6946,3.6929,3.6927,3.6946,3.696,3.6977,3.7051,3.7045,3.7088,3.7103,3.7116,3.7124,3.7159,3.7177,3.6986,3.6986,3.6986,0,0,3.701,3.6995,3.7015,3.7027,3.7021,3.7049,3.6971,3.7004,3.7024,3.6951,3.6996,3.6985,3.6979,3.7041,3.7067,3.7035,3.7175,3.7126,3.7136,3.7137,3.7169,3.7187,3.7203,3.6992,3.6991,3.699,0,0,3.7137,3.713,3.7179,3.7175,3.7167,3.7142,3.7154,3.7135,3.7123,3.7168,3.7113,3.7136,3.7171,3.7168,3.7171,3.7295,3.7251,3.7302,3.7379,3.7414,3.7429,3.7442,3.7483,3.7499,3.7311,3.7311,3.7311,0,3.7215,3.7255,3.721,3.7246,3.7251,3.7185,3.7234,3.7232,3.7231,3.7236,3.72,3.724,3.7232,3.729,3.732,3.7326,3.7337,3.7302,3.7431,3.7443,3.7455,3.7493,3.7509,3.7317,3.7316,3.7315,3.7315,0,3.735,3.7378,3.7419,3.7417,3.7427,3.747,3.743,3.7446,3.7414,3.7393,3.7438,3.7425,3.7436,3.7448,3.7419,3.7502,3.7482,3.744,3.7375,3.7479,3.7514,3.7529,3.7325,3.7323,3.7321,3.732,0,0,3.754,3.7511,3.7527,3.7523,3.7509,3.7529,3.7568,3.7578,3.7591,3.7592,3.7622,3.7652,3.7611,3.7615,3.7584,3.7615,3.7709,3.7567,3.7566,3.7592,3.7797,3.7827,3.7846,3.7681,3.7684,3.7686,3.7797,0,3.766,3.7723,3.7683,3.7752,3.7776,3.7713,3.7746,3.774,3.7721,3.7738,3.7717,3.7737,3.7684,3.7685,3.7713,3.7692,3.7749,3.7684,3.7706,3.7708,3.7707,3.7864,3.7897,3.8002,3.781,3.7813,3.7815,0,3.7808,3.7813,3.7884,3.7861,3.787,3.7901,3.7904,3.7922,3.7914,3.7897,3.79,3.786,3.7895,3.7833,3.7879,3.7835,3.7843,3.7833,3.7836,3.7835,3.7766,3.7865,3.8035,3.805,3.7836,3.7835,3.7833,0,3.7935,3.796,3.8005,3.8005,3.7981,3.8003,3.7994,3.7982,3.799,3.7994,3.7997,3.8006,3.801,3.8017,3.798,3.7939,3.8031,3.7966,3.8016,3.8017,3.8037,3.8035,3.8208,3.8046,3.8046,3.8046,3.8045,0,3.8071,3.8117,3.8061,3.8089,3.8137,3.809,3.8139,3.8124,3.8113,3.8136,3.8083,3.8105,3.8056,3.8073,3.8045,3.8085,3.8089,3.8075,3.8066,3.8078,3.808,3.8081,3.8071,3.805,3.8049,3.8048,3.8047,0,3.8222,3.8187,3.8231,3.8203,3.8197,3.8234,3.821,3.8234,3.8211,3.824,3.8244,3.8207,3.8224,3.8188,3.8201,3.8181,3.8238,3.822,3.8241,3.8234,3.8285,3.828,3.8462,3.8482,3.8311,3.8312,3.8314,0,3.8309,3.8342,3.8318,3.8328,3.8322,3.834,3.8346,3.8302,3.831,3.8302,3.8326,3.8338,3.8346,3.8376,3.835,3.8359,3.8338,3.8401,3.8339,3.8348,3.8335,3.8332,3.8334,3.8413,3.8415,3.8417,3.8419,0,3.8468,3.8448,3.8459,3.8463,3.8472,3.8474,3.8472,3.8484,3.8436,3.8448,3.8464,3.847,3.8481,3.8493,3.8495,3.8486,3.8444,3.8439,3.845,3.8461,3.8471,3.8463,3.8273,3.8434,3.8433,3.8431,3.8431,3.843,3.8587,3.8612,3.8597,3.8611,3.8604,3.8603,3.8622,3.86,3.8613,3.8617,3.8591,3.8612,3.86,3.8598,3.8593,3.8608,3.858,3.8597,3.8601,3.8605,3.8612,3.847,3.8609,3.8609,3.8608,3.8608,3.8607,0,3.874,3.8727,3.8739,3.8737,3.8747,3.8706,3.8701,3.8712,3.8731,3.8723,3.8731,3.8748,3.8759,3.8733,3.874,3.8757,3.8738,3.876,3.8757,3.8755,3.8639,3.8627,3.8775,3.8775,3.8775,3.8775,3.8775,3.8775,3.882,3.8859,3.8837,3.8871,3.8858,3.8877,3.8878,3.8876,3.8869,3.8889,3.8898,3.8881,3.8865,3.887,3.8878,3.887,3.8874,3.8902,3.8888,3.878,3.8763,3.8748,3.8736,3.8904,3.8904,3.9001,3.9002,3.9003]},{"header":{"parameterUnit":"m.s-1","parameterCategory":1,"la1":30.2991,"la2":30.254,"lo1":-89.0895,"lo2":-89.0444,"dy":0.0017,"dx":0.0017,"nx":28,"ny":28,"refTime":"2024-07-14T21:00:00:Z","depth":0,"parameterNumber":3,"parameterNumberName":"V-component_of_WINDS"},"data":[0,0,0,0,0,0,0,0,0,0,0,0,0,0,0,0,0,0,0,0,0,0,0,0,0,0,0,0,0,0,0,0,0,0,0,0,0,0,0,0,0,0,0,0,0,0,0,0,0,0,0,0,0,0,0,0,0,0,4.1412,4.1414,0,4.1663,4.1666,4.1669,4.1703,4.17,4.1698,4.1696,4.1951,4.196,4.1969,0,0,0,0,0,0,0,0,0,0,0,0,0,4.0958,4.0966,4.1411,4.1415,4.1418,4.1663,4.1666,4.167,4.1703,4.17,4.1697,4.1695,4.1948,4.1959,4.197,0,0,0,0,0,0,0,0,0,0,0,0,0,4.1177,4.0969,4.1411,4.1464,4.1471,4.1662,4.1666,4.1671,4.1704,4.17,4.1697,4.1693,4.1945,4.1958,4.1971,4.2126,0,0,4.2012,4.2018,0,0,0,0,0,0,0,0,4.1164,4.1193,4.1453,4.1461,4.1469,4.1648,4.16,4.1823,4.1705,4.1615,4.1696,4.1692,4.1853,4.1874,4.1929,4.2138,4.2148,4.2014,4.2022,4.2028,4.2031,0,0,0,0,0,0,0,4.1149,4.1183,4.1511,4.1457,4.1467,4.1475,4.1502,4.1642,4.1751,4.1623,4.1626,4.1655,4.1857,4.1916,4.1935,4.2152,4.2013,4.2025,4.2034,4.2039,4.25,4.2504,0,0,0,0,0,0,4.1124,4.117,4.1503,4.1519,4.1305,4.1486,4.1516,4.1594,4.175,4.177,4.1658,4.1656,4.1894,4.1919,4.1944,4.2135,4.2027,4.204,4.2048,4.2496,4.2501,4.2505,0,0,0,0,0,0,4.1115,4.1154,4.1493,4.1345,4.1389,4.1497,4.1585,4.1601,4.166,4.1776,4.1796,4.1699,4.1893,4.1925,4.208,4.2144,4.2046,4.2059,4.2491,4.2497,4.2503,4.2518,0,0,0,0,0,0,4.1101,4.115,4.121,4.1346,4.1397,4.1626,4.1589,4.1609,4.1684,4.1683,4.1819,4.1838,4.1892,4.206,4.2094,4.2161,4.2069,4.2486,4.2494,4.2501,4.2513,4.2524,4.2534,0,0,0,0,0,4.1085,4.1204,4.1213,4.1253,4.1475,4.1629,4.1658,4.1718,4.1689,4.175,4.1824,4.1834,4.2132,4.2076,4.2114,4.2186,4.2482,4.2492,4.2501,4.2508,4.2522,4.2534,0,0,0,0,0,0,4.1072,4.1223,4.1235,4.1402,4.1502,4.1635,4.1714,4.1731,4.1842,4.1837,4.1906,4.1937,4.2089,4.2153,4.2088,4.2344,4.2304,4.2322,4.2296,4.2311,4.2322,4.2303,4.208,0,0,0,0,0,4.1089,4.1203,4.1328,4.1463,4.1513,4.1605,4.1674,4.1712,4.1819,4.1862,4.1948,4.205,4.2167,4.2243,4.2356,4.2522,4.2552,4.2591,4.2601,4.261,4.2624,4.2716,4.2735,4.2536,4.2536,4.2536,0,0,4.1124,4.1221,4.1288,4.1463,4.1546,4.1661,4.164,4.1764,4.185,4.188,4.2032,4.2099,4.2218,4.2379,4.2454,4.2437,4.2686,4.2622,4.2628,4.2638,4.2728,4.2746,4.2763,4.2542,4.2541,4.254,0,0,4.1248,4.1333,4.1455,4.1538,4.1663,4.1724,4.1753,4.1883,4.1928,4.2082,4.2107,4.221,4.241,4.2494,4.2563,4.2718,4.2731,4.2753,4.281,4.2899,4.2915,4.2929,4.2984,4.3003,4.2767,4.2767,4.2767,0,4.1276,4.1452,4.1515,4.1638,4.1713,4.1747,4.187,4.1948,4.2103,4.2155,4.2134,4.2385,4.2468,4.2649,4.2687,4.2742,4.2777,4.2738,4.2908,4.2923,4.2937,4.299,4.3011,4.2769,4.2769,4.2769,4.2769,0,4.148,4.1602,4.1685,4.1836,4.1921,4.2043,4.2123,4.2202,4.2232,4.2294,4.245,4.255,4.2685,4.2731,4.2761,4.2916,4.2902,4.2894,4.2855,4.2956,4.3008,4.3029,4.2772,4.2771,4.2771,4.277,0,0,4.1603,4.1787,4.1816,4.1885,4.2026,4.2121,4.2244,4.2377,4.2443,4.2549,4.2654,4.2822,4.2816,4.2894,4.2934,4.3012,4.3128,4.2994,4.2998,4.3015,4.3305,4.3311,4.3334,4.3138,4.3142,4.3145,4.3295,0,4.1743,4.1965,4.2025,4.2213,4.2326,4.2359,4.2467,4.2564,4.2626,4.273,4.2797,4.2915,4.2897,4.2945,4.3023,4.3097,4.3187,4.3087,4.3236,4.324,4.3205,4.3361,4.3367,4.3504,4.3316,4.3319,4.3322,0,4.1936,4.2047,4.2247,4.2373,4.2423,4.2519,4.2645,4.2744,4.2855,4.2894,4.2981,4.3014,4.3144,4.3098,4.3277,4.3207,4.3272,4.3317,4.3324,4.334,4.3287,4.3381,4.3549,4.3569,4.3354,4.3352,4.3349,0,4.2005,4.2205,4.235,4.2408,4.2559,4.2625,4.2691,4.2799,4.2875,4.2985,4.3035,4.3158,4.3225,4.332,4.3385,4.3346,4.3558,4.3518,4.3594,4.3592,4.3637,4.3633,4.3818,4.3678,4.3678,4.3677,4.3677,0,4.2156,4.2276,4.2383,4.2472,4.2609,4.2676,4.2808,4.2875,4.2971,4.3073,4.3109,4.3204,4.3284,4.339,4.3441,4.3582,4.3612,4.3646,4.3659,4.3644,4.3639,4.3686,4.3679,4.3683,4.3682,4.3681,4.368,0,4.2256,4.2333,4.2493,4.2623,4.2659,4.2753,4.2864,4.2952,4.3014,4.3143,4.3177,4.3275,4.3401,4.3475,4.3635,4.3669,4.3825,4.3833,4.3787,4.3793,4.3865,4.3857,4.4086,4.4119,4.3957,4.3958,4.396,0,4.2347,4.244,4.2581,4.2652,4.2719,4.2834,4.2912,4.2981,4.306,4.3194,4.3266,4.3394,4.3501,4.3701,4.3786,4.3908,4.3919,4.3991,4.3938,4.392,4.3921,4.3914,4.3924,4.4,4.4002,4.4003,4.4004,0,4.2499,4.2533,4.2644,4.2769,4.2861,4.2962,4.3062,4.3119,4.3205,4.3292,4.3422,4.3505,4.3668,4.3796,4.3925,4.3992,4.4012,4.402,4.4044,4.4029,4.3999,4.4017,4.3812,4.4014,4.4013,4.4012,4.4012,4.4011,4.2598,4.2683,4.2795,4.2918,4.3001,4.3094,4.3183,4.3256,4.3366,4.3505,4.3539,4.3676,4.3784,4.396,4.403,4.4138,4.4126,4.416,4.4169,4.4177,4.4179,4.3982,4.4162,4.4161,4.4161,4.4161,4.4161,0,4.2752,4.2826,4.2938,4.3079,4.3175,4.3186,4.3298,4.3378,4.3498,4.3598,4.3703,4.3852,4.3976,4.407,4.4197,4.4265,4.4277,4.4295,4.4291,4.4306,4.4183,4.4149,4.4283,4.4283,4.4283,4.4283,4.4283,4.4283,4.2844,4.2988,4.3035,4.3221,4.3294,4.3428,4.3491,4.3577,4.3658,4.3823,4.3926,4.3987,4.4086,4.4219,4.4333,4.4358,4.4403,4.442,4.4446,4.4328,4.4315,4.4302,4.4271,4.4429,4.4429,4.4561,4.4562,4.4563]}]]